Flag for U.S.A. Weather past 2 weeks in Buffalo, New York, U.S.A.

Now
70 °F

Light rain. Fog.


Feels Like: 65 °F
Forecast: 61 / 72 °F
Wind: 16 mph from Southwest

Location: Greater Buffalo International Airport

Current Time: Jul 7, 2015 at 11:13:43 PM

Latest Report: Jul 7, 2015 at 10:54 PM


Visibility: 6 mi

Pressure: 29.89 "Hg

Humidity: 93%

Dew point: 68 °F

Location of BuffaloLocation

Historic Weather in Buffalo — Graph

°F

Buffalo temperature yesterday

Maximum temperature yesterday: 85 °F (at 2:54 PM)
Minimum temperature yesterday: 65 °F (at 3:54 AM)
Average temperature yesterday: 74 °F

Past Weeks' High & Low Weather Summary

 TemperatureHumidityPressure
High87 °F (Jul 7, 2:54 PM)94% (Jul 1, 7:54 AM)30.14 "Hg (Jul 1, 7:54 AM)
Low50 °F (Jul 3, 4:54 AM)33% (Jul 4, 5:54 PM)29.65 "Hg (Jun 23, 5:54 AM)
Average67 °F70%29.93 "Hg
* Reported Jun 22 9:54 PM — Jul 7 9:54 PM, Buffalo, Weather by CustomWeather, © 2015

Note: Actual official high and low records may vary slightly from our data, if they occured in-between our weather recording intervals... More about our weather records

Advertising

Buffalo weather history for previous 24 hours

 ConditionsComfort  
Time TempWeatherWind HumidityBarometerVisibility
9:54 PM
Tue, Jul 7
71 °FMostly cloudy.15 mph87%29.88 "Hg10 mi
9:02 PM71 °FLight rain. Mostly cloudy.15 mph90%29.88 "Hg10 mi
8:54 PM71 °FLight rain. Cloudy.13 mph90%29.87 "Hg8 mi
7:54 PM72 °FLight rain. Overcast.14 mph84%29.87 "Hg8 mi
6:54 PM74 °FLight rain. Cloudy.13 mph79%29.85 "Hg9 mi
5:54 PM72 °FMostly cloudy.6 mph84%29.86 "Hg7 mi
5:04 PM73 °FThunderstorms. Cloudy.18 mph81%29.88 "Hg1 mi
4:54 PM76 °FThunderstorms. Cloudy.15 mph77%29.85 "Hg7 mi
4:04 PM76 °FThunderstorms. Partly sunny.20 mph82%29.86 "Hg5 mi
4:01 PM78 °FHeavy rain. Partly sunny.23 mph76%29.85 "Hg1 mi
2:54 PM87 °FBroken clouds.17 mph53%29.83 "Hg10 mi
1:54 PM85 °FBroken clouds.17 mph53%29.84 "Hg10 mi
12:54 PM84 °FPartly sunny.15 mph57%29.87 "Hg9 mi
11:54 AM82 °FScattered clouds.20 mph63%29.88 "Hg8 mi
10:54 AM81 °FBroken clouds.12 mph62%29.90 "Hg8 mi
9:54 AM79 °FPartly sunny.15 mph65%29.91 "Hg10 mi
8:54 AM76 °FPartly sunny.13 mph69%29.92 "Hg10 mi
7:54 AM74 °FPartly sunny.8 mph79%29.93 "Hg10 mi
6:54 AM71 °FPartly sunny.9 mph87%29.93 "Hg10 mi
5:54 AM71 °FPartly cloudy.5 mph84%29.94 "Hg10 mi
4:54 AM70 °FPassing clouds.9 mph87%29.91 "Hg10 mi
3:54 AM71 °FPartly cloudy.9 mph84%29.93 "Hg10 mi
2:54 AM70 °FPassing clouds.9 mph87%29.93 "Hg10 mi
1:54 AM70 °FPassing clouds.6 mph87%29.93 "Hg10 mi
12:54 AM72 °FPassing clouds.6 mph84%29.94 "Hg10 mi
11:54 PM
Mon, Jul 6
72 °FPassing clouds.6 mph87%29.95 "Hg8 mi
Weather by CustomWeather, © 2015

See weather overviewHow to use our weather pages